• en France
  • Liste des pays
  • À 7 jours
  • Température de l'eau
  • Carte satellitaire
  • Carte météo
  • Widgets météo
  • user-avatar
    Se connecter

    Météo par heure à Bucaramanga

    Ce jour, 20 Août, Lundi

    Heure Température Précipitation Vent Pression Humidité
    00:00 +21°C° 0,2 mm 1 m/s 674 mmHg 83%
    01:00 +21°C° 0 mm 1 m/s 674 mmHg 81%
    02:00 +20°C° 0,2 mm 1 m/s 673 mmHg 80%
    03:00 +20°C° 0,2 mm 1 m/s 673 mmHg 78%
    04:00 +20°C° 0,2 mm 1 m/s 673 mmHg 77%
    05:00 +20°C° 0 mm 1 m/s 673 mmHg 74%
    06:00 +21°C° 0 mm 1 m/s 674 mmHg 72%
    07:00 +22°C° 0 mm 1 m/s 674 mmHg 69%
    08:00 +25°C° 0 mm 1 m/s 674 mmHg 62%
    09:00 +27°C° 0 mm 1 m/s 675 mmHg 56%
    10:00 +30°C° 0 mm 1 m/s 675 mmHg 50%
    11:00 +30°C° 0 mm 2 m/s 675 mmHg 48%
    12:00 +31°C° 0 mm 2 m/s 674 mmHg 47%
    13:00 +32°C° 0 mm 2 m/s 674 mmHg 46%
    14:00 +31°C° 0,4 mm 2 m/s 673 mmHg 49%
    15:00 +31°C° 0,4 mm 2 m/s 673 mmHg 51%
    16:00 +30°C° 0,4 mm 1 m/s 672 mmHg 54%
    17:00 +28°C° 0,9 mm 1 m/s 672 mmHg 61%
    18:00 +26°C° 0,9 mm 1 m/s 672 mmHg 68%
    19:00 +24°C° 0,9 mm 1 m/s 672 mmHg 74%
    20:00 +24°C° 0,2 mm 1 m/s 673 mmHg 74%
    21:00 +23°C° 0,2 mm 1 m/s 673 mmHg 73%
    22:00 +23°C° 0,2 mm 1 m/s 674 mmHg 73%
    23:00 +22°C° 0,4 mm 1 m/s 674 mmHg 73%

    Demain, 21 Août, Mardi

    Heure Température Précipitation Vent Pression Humidité
    00:00 +22°C° 0,4 mm 1 m/s 674 mmHg 73%
    01:00 +21°C° 0,4 mm 1 m/s 674 mmHg 73%
    02:00 +21°C° 0,7 mm 1 m/s 673 mmHg 75%
    03:00 +21°C° 0,7 mm 1 m/s 673 mmHg 77%
    04:00 +21°C° 0,7 mm 1 m/s 673 mmHg 79%
    05:00 +21°C° 0,7 mm 1 m/s 673 mmHg 80%
    06:00 +21°C° 0,7 mm 1 m/s 674 mmHg 80%
    07:00 +21°C° 0,7 mm 1 m/s 674 mmHg 81%
    08:00 +23°C° 0,5 mm 1 m/s 674 mmHg 78%
    09:00 +24°C° 0,5 mm 1 m/s 675 mmHg 74%
    10:00 +25°C° 0,5 mm 1 m/s 675 mmHg 70%
    11:00 +27°C° 0,1 mm 1 m/s 674 mmHg 65%
    12:00 +28°C° 0,1 mm 1 m/s 674 mmHg 60%
    13:00 +30°C° 0,1 mm 1 m/s 673 mmHg 55%
    14:00 +29°C° 0,6 mm 1 m/s 673 mmHg 57%
    15:00 +29°C° 0,6 mm 1 m/s 672 mmHg 60%
    16:00 +28°C° 0,6 mm 1 m/s 672 mmHg 62%
    17:00 +27°C° 1,1 mm 1 m/s 672 mmHg 67%
    18:00 +25°C° 1,1 mm 1 m/s 672 mmHg 72%
    19:00 +24°C° 1,1 mm 1 m/s 672 mmHg 77%
    20:00 +24°C° 0,5 mm 1 m/s 673 mmHg 77%
    21:00 +23°C° 0,5 mm 1 m/s 674 mmHg 76%
    22:00 +23°C° 0,5 mm 1 m/s 674 mmHg 76%
    23:00 +23°C° 0,2 mm 1 m/s 674 mmHg 76%

    Après-demain, 22 Août, Mercredi

    Heure Température Précipitation Vent Pression Humidité
    00:00 +23°C° 0,2 mm 1 m/s 674 mmHg 76%
    01:00 +22°C° 0,2 mm 1 m/s 673 mmHg 76%
    02:00 +22°C° 0,1 mm 1 m/s 673 mmHg 76%
    03:00 +22°C° 0,1 mm 1 m/s 673 mmHg 76%
    04:00 +21°C° 0,1 mm 1 m/s 673 mmHg 77%
    05:00 +22°C° 0,1 mm 1 m/s 673 mmHg 76%
    06:00 +22°C° 0,1 mm 1 m/s 673 mmHg 76%
    07:00 +23°C° 0,1 mm 1 m/s 674 mmHg 76%
    08:00 +24°C° 0,1 mm 1 m/s 674 mmHg 70%
    09:00 +26°C° 0,1 mm 1 m/s 675 mmHg 64%
    10:00 +28°C° 0,1 mm 1 m/s 675 mmHg 58%
    11:00 +29°C° 0,1 mm 1 m/s 675 mmHg 56%
    12:00 +30°C° 0,1 mm 1 m/s 674 mmHg 55%
    13:00 +31°C° 0,1 mm 1 m/s 673 mmHg 53%
    14:00 +30°C° 1,1 mm 1 m/s 673 mmHg 58%
    15:00 +29°C° 1,1 mm 1 m/s 672 mmHg 63%
    16:00 +28°C° 1,1 mm 1 m/s 671 mmHg 69%
    17:00 +27°C° 1 mm 1 m/s 672 mmHg 72%
    18:00 +25°C° 1 mm 1 m/s 672 mmHg 76%
    19:00 +24°C° 1 mm 1 m/s 672 mmHg 79%
    20:00 +24°C° 0,7 mm 1 m/s 673 mmHg 80%
    21:00 +23°C° 0,7 mm 1 m/s 673 mmHg 80%
    22:00 +23°C° 0,7 mm 1 m/s 674 mmHg 81%
    23:00 +23°C° 0,9 mm 1 m/s 673 mmHg 82%

    23 Août, Jeudi

    Heure Température Précipitation Vent Pression Humidité
    00:00 +22°C° 0,9 mm 1 m/s 673 mmHg 83%
    01:00 +22°C° 0,9 mm 1 m/s 673 mmHg 84%
    02:00 +22°C° 0,8 mm 1 m/s 673 mmHg 85%
    03:00 +21°C° 0,8 mm 1 m/s 672 mmHg 85%
    04:00 +21°C° 0,8 mm 1 m/s 672 mmHg 86%
    05:00 +21°C° 0,6 mm 1 m/s 673 mmHg 86%
    06:00 +22°C° 0,6 mm 1 m/s 673 mmHg 86%
    07:00 +22°C° 0,6 mm 1 m/s 673 mmHg 86%
    08:00 +23°C° 0,2 mm 1 m/s 674 mmHg 81%
    09:00 +24°C° 0,2 mm 1 m/s 674 mmHg 76%
    10:00 +26°C° 0,2 mm 1 m/s 675 mmHg 70%
    11:00 +27°C° 0,2 mm 1 m/s 674 mmHg 67%
    12:00 +28°C° 0,2 mm 1 m/s 674 mmHg 63%
    13:00 +29°C° 0,2 mm 1 m/s 673 mmHg 59%
    14:00 +28°C° 1 mm 1 m/s 672 mmHg 61%
    15:00 +28°C° 1 mm 1 m/s 672 mmHg 63%
    16:00 +27°C° 1 mm 1 m/s 671 mmHg 65%
    17:00 +26°C° 0,8 mm 1 m/s 671 mmHg 69%
    18:00 +25°C° 0,8 mm 1 m/s 672 mmHg 74%
    19:00 +24°C° 0,8 mm 1 m/s 672 mmHg 79%
    20:00 +23°C° 0,6 mm 1 m/s 672 mmHg 80%
    21:00 +23°C° 0,6 mm 1 m/s 673 mmHg 80%
    22:00 +23°C° 0,6 mm 1 m/s 674 mmHg 81%
    23:00 +22°C° 0,8 mm 1 m/s 673 mmHg 82%

    24 Août, Vendredi

    Heure Température Précipitation Vent Pression Humidité
    00:00 +22°C° 0,8 mm 1 m/s 673 mmHg 83%
    01:00 +21°C° 0,8 mm 1 m/s 672 mmHg 85%
    02:00 +21°C° 0,8 mm 1 m/s 672 mmHg 85%
    03:00 +21°C° 0,8 mm 1 m/s 672 mmHg 86%
    04:00 +21°C° 0,8 mm 1 m/s 672 mmHg 86%
    05:00 +21°C° 0,6 mm 1 m/s 672 mmHg 85%
    06:00 +22°C° 0,6 mm 1 m/s 673 mmHg 84%
    07:00 +22°C° 0,6 mm 1 m/s 673 mmHg 84%
    08:00 +23°C° 0,5 mm 1 m/s 674 mmHg 80%
    09:00 +24°C° 0,5 mm 1 m/s 674 mmHg 76%
    10:00 +26°C° 0,5 mm 1 m/s 674 mmHg 72%
    11:00 +26°C° 0,8 mm 1 m/s 674 mmHg 71%
    12:00 +26°C° 0,8 mm 1 m/s 673 mmHg 70%
    13:00 +27°C° 0,8 mm 1 m/s 673 mmHg 69%
    14:00 +26°C° 0,7 mm 1 m/s 672 mmHg 73%
    15:00 +26°C° 0,7 mm 1 m/s 672 mmHg 76%
    16:00 +25°C° 0,7 mm 1 m/s 671 mmHg 80%
    17:00 +24°C° 0,7 mm 1 m/s 672 mmHg 82%
    18:00 +24°C° 0,7 mm 1 m/s 672 mmHg 84%
    19:00 +23°C° 0,7 mm 1 m/s 673 mmHg 86%
    20:00 +22°C° 0,9 mm 1 m/s 673 mmHg 85%
    21:00 +22°C° 0,9 mm 1 m/s 674 mmHg 85%
    22:00 +22°C° 0,9 mm 1 m/s 674 mmHg 85%
    23:00 +22°C° 1,1 mm 1 m/s 674 mmHg 86%

    25 Août, Samedi

    Heure Température Précipitation Vent Pression Humidité
    00:00 +21°C° 1,1 mm 1 m/s 673 mmHg 86%
    01:00 +21°C° 1,1 mm 1 m/s 673 mmHg 87%
    02:00 +21°C° 0,5 mm 1 m/s 673 mmHg 87%
    03:00 +21°C° 0,5 mm 1 m/s 673 mmHg 87%
    04:00 +21°C° 0,5 mm 1 m/s 673 mmHg 86%
    05:00 +21°C° 0,2 mm 1 m/s 673 mmHg 86%
    06:00 +21°C° 0,2 mm 1 m/s 674 mmHg 85%
    07:00 +21°C° 0,2 mm 1 m/s 674 mmHg 85%
    08:00 +23°C° 0,2 mm 1 m/s 674 mmHg 80%
    09:00 +24°C° 0,2 mm 1 m/s 675 mmHg 76%
    10:00 +26°C° 0,2 mm 1 m/s 675 mmHg 71%
    11:00 +26°C° 0,4 mm 1 m/s 675 mmHg 69%
    12:00 +27°C° 0,4 mm 1 m/s 674 mmHg 66%
    13:00 +28°C° 0,4 mm 1 m/s 673 mmHg 64%
    14:00 +27°C° 0,6 mm 1 m/s 673 mmHg 66%
    15:00 +27°C° 0,6 mm 1 m/s 673 mmHg 69%
    16:00 +26°C° 0,6 mm 1 m/s 672 mmHg 71%
    17:00 +25°C° 0,9 mm 1 m/s 673 mmHg 75%
    18:00 +24°C° 0,9 mm 1 m/s 673 mmHg 79%
    19:00 +23°C° 0,9 mm 1 m/s 673 mmHg 82%
    20:00 +23°C° 0,8 mm 1 m/s 674 mmHg 83%
    21:00 +22°C° 0,8 mm 1 m/s 674 mmHg 84%
    22:00 +22°C° 0,8 mm 1 m/s 675 mmHg 85%
    23:00 +22°C° 0,7 mm 1 m/s 674 mmHg 84%
    Voir plus